This is the latest recevied weather packets stored in our database for station/object K4DFD-13. If no packets are shown the sender has not sent any weather packets the latest 10 day(s).
| Time | Temp. | Humidity | Pressure | Rain* | Wind** | Luminosity | Snow |
|---|---|---|---|---|---|---|---|
| 1777714710 | 6.67° C | 59% | 1014.7 hPa | 0 mm | - | - | - |
| 1777714409 | 7.22° C | 59% | 1014.7 hPa | 0 mm | - | - | - |
| 1777714109 | 7.22° C | 60% | 1014.8 hPa | 0 mm | - | - | - |
| 1777713809 | 7.22° C | 59% | 1014.7 hPa | 0 mm | - | - | - |
| 1777713508 | 7.22° C | 59% | 1014.8 hPa | 0 mm | - | - | - |
| 1777713208 | 7.22° C | 59% | 1014.8 hPa | 0 mm | - | - | - |
| 1777712908 | 7.22° C | 59% | 1015 hPa | 0 mm | - | - | - |
| 1777712607 | 7.78° C | 59% | 1014.9 hPa | 0 mm | - | - | - |
| 1777712307 | 7.78° C | 59% | 1014.9 hPa | 0 mm | - | - | - |
| 1777712006 | 7.78° C | 58% | 1015 hPa | 0 mm | - | - | - |
| 1777711706 | 7.78° C | 59% | 1015.1 hPa | 0 mm | - | - | - |
| 1777711406 | 7.78° C | 60% | 1015.2 hPa | 0 mm | - | - | - |
| 1777711106 | 7.78° C | 59% | 1015.2 hPa | 0 mm | - | - | - |
| 1777710795 | 7.78° C | 59% | 1015.3 hPa | 0 mm | - | - | - |
| 1777710505 | 7.78° C | 59% | 1015.1 hPa | 0 mm | - | - | - |
| 1777710204 | 7.78° C | 59% | 1015.1 hPa | 0 mm | - | - | - |
| 1777709904 | 7.78° C | 60% | 1015.1 hPa | 0 mm | - | - | - |
| 1777709604 | 7.78° C | 62% | 1015 hPa | 0 mm | - | - | - |
| 1777709303 | 7.78° C | 63% | 1014.9 hPa | 0 mm | - | - | - |
| 1777709003 | 7.78° C | 66% | 1014.9 hPa | 0 mm | - | - | - |
| 1777708702 | 8.33° C | 70% | 1014.9 hPa | 0 mm | - | - | - |
| 1777708402 | 8.33° C | 70% | 1014.9 hPa | 0 mm | - | - | - |
| 1777708102 | 8.33° C | 70% | 1014.9 hPa | 0 mm | - | - | - |
| 1777707801 | 8.33° C | 71% | 1014.8 hPa | 0 mm | - | - | - |
| 1777707496 | 8.33° C | 73% | 1014.6 hPa | 0 mm | - | - | - |
* Rain latest hour (hover to see other rain measurements)
** Current wind speed in m/s (hover to see current wind gust speed)